Address 0xdf0566896df00bfbd0bf86012251ff7b22f6a018 2

Txn Hash Method
Block
From
To
Value [Txn Fee]
0x339fe4dbd36a01ca14a5d3104318042edce0bc0e327b8d9e5240d9de3ef71e47Dispatch183408332023-01-26 4:45:356 days 11 hrs ago0xdf0566896df00bfbd0bf86012251ff7b22f6a018OUT 0xcc737a94fecaec165abcf12ded095bb13f0376850 AVAX0.00162505632
0x437e3bd46374e35c2adbb689a75505b791944d503ef3d1db3dd7f8da9eb9c402Dispatch183220532023-01-25 15:15:047 days 1 hr ago0xdf0566896df00bfbd0bf86012251ff7b22f6a018OUT 0xcc737a94fecaec165abcf12ded095bb13f0376850 AVAX0.0017301131
0xffbc964807b6376782ad1b5cafcdba963b180202792bb35f17ad0363b5a96944Dispatch177047882023-01-05 14:48:5927 days 1 hr ago0xdf0566896df00bfbd0bf86012251ff7b22f6a018OUT0xc507a7c848b59469cc44a3653f8a582aa8bec71e0 AVAX0.0014252730
0x8b1bd6cc33b8087f3d416095b6022306c793ad5bdf0a536a49b01ed1094b130aDispatch176954372023-01-05 9:27:2627 days 6 hrs ago0xdf0566896df00bfbd0bf86012251ff7b22f6a018OUT0xc507a7c848b59469cc44a3653f8a582aa8bec71e0 AVAX0.00146905931
0x2212001227101a7853f0ae2a837610d681080a0d796b074781ad706c826c662aDispatch176854862023-01-05 3:43:1027 days 12 hrs ago0xdf0566896df00bfbd0bf86012251ff7b22f6a018OUT0xc507a7c848b59469cc44a3653f8a582aa8bec71e0 AVAX0.00198300333
0x43c5f71e5b8a0f3611202adf9e341cea383b6b3af198f195f48130a6612d6a79Withdraw99115012022-05-20 11:39:48257 days 4 hrs ago0xdf0566896df00bfbd0bf86012251ff7b22f6a018OUT0xc63b35478c63a8d4598d72565fa80f62c6f518230 AVAX0.0030720627
0x381e5d55d45236a63047e235f0af2037eb0b967e9c7cc237167bba960690e592Withdraw99111102022-05-20 11:26:45257 days 4 hrs ago0xdf0566896df00bfbd0bf86012251ff7b22f6a018OUT0xc63b35478c63a8d4598d72565fa80f62c6f518230 AVAX0.0029582826
0xee1f7c4780d1d3fc4ba097d71a546e38024c96aa8a19e42d3f62ef86286e9d1cWithdraw99107142022-05-20 11:13:34257 days 5 hrs ago0xdf0566896df00bfbd0bf86012251ff7b22f6a018OUT0xc63b35478c63a8d4598d72565fa80f62c6f518230 AVAX0.00392547627
0xf809b7c093aca2b26633658f90b793c23bfac6a2573f8d3c169c9b50c9ab3d3fHarvest99094682022-05-20 10:32:01257 days 5 hrs ago0xdf0566896df00bfbd0bf86012251ff7b22f6a018OUT0xc63b35478c63a8d4598d72565fa80f62c6f518230 AVAX0.0024142326
0xfee71fc166adf21db4d84578245e5e39c42489b361d2627083191fb724e1d508Harvest99091672022-05-20 10:22:00257 days 5 hrs ago0xdf0566896df00bfbd0bf86012251ff7b22f6a018OUT0xc63b35478c63a8d4598d72565fa80f62c6f518230 AVAX0.0024142326
0x4a42c0f82d5f14e0353e000d9a7ea2bc35ec06e3f5658087d4822dbcd0c5d508Harvest99089462022-05-20 10:14:38257 days 6 hrs ago0xdf0566896df00bfbd0bf86012251ff7b22f6a018OUT0xc63b35478c63a8d4598d72565fa80f62c6f518230 AVAX0.0024142326
0x4b67a4dce96687ecf2ede3ff811295f37b862364e37af7bdb46c5226e9c39c22Harvest99088262022-05-20 10:10:38257 days 6 hrs ago0xdf0566896df00bfbd0bf86012251ff7b22f6a018OUT0xc63b35478c63a8d4598d72565fa80f62c6f518230 AVAX0.00331967727
0x24144ba292652b122992cf96429405b7ef9353a028a0d8117c0063f34166e3d2Stake99088252022-05-20 10:10:36257 days 6 hrs ago0xdf0566896df00bfbd0bf86012251ff7b22f6a018OUT0xc63b35478c63a8d4598d72565fa80f62c6f518230 AVAX0.00316287426
0x3ea906c8a0828e8ec6784bd6fb395ae6d9c567a382b0fd9ec8b15309aaec4dd8Harvest99085892022-05-20 10:02:44257 days 6 hrs ago0xdf0566896df00bfbd0bf86012251ff7b22f6a018OUT0xc63b35478c63a8d4598d72565fa80f62c6f518230 AVAX0.0024142326
0x537056c898e5f58381063ab7ca77779cebe1f253127a1b152cd560891a87d771Stake99080592022-05-20 9:45:04257 days 6 hrs ago0xdf0566896df00bfbd0bf86012251ff7b22f6a018OUT0xc63b35478c63a8d4598d72565fa80f62c6f518230 AVAX0.00316287426
0xba64409e833a526d150bd729d137c89abfb907b3091f1fb2f5122a286d5279b1Withdraw99075392022-05-20 9:27:40257 days 6 hrs ago0xdf0566896df00bfbd0bf86012251ff7b22f6a018OUT0xc63b35478c63a8d4598d72565fa80f62c6f518230 AVAX0.00295890426
0x0c190f7070fb011b44fc3d2eba87a3dd6bc4c409150fa985b396165468fc1e4bStake99070892022-05-20 9:12:38257 days 7 hrs ago0xdf0566896df00bfbd0bf86012251ff7b22f6a018OUT0xc63b35478c63a8d4598d72565fa80f62c6f518230 AVAX0.00348208227
0xad9b068bb8c19d296ab79a25328dbf488856d7231e0faf33e89deb6f63f26319Withdraw99063472022-05-20 8:47:43257 days 7 hrs ago0xdf0566896df00bfbd0bf86012251ff7b22f6a018OUT0xc63b35478c63a8d4598d72565fa80f62c6f518230 AVAX0.00110851227
0xb71c0abdb14f75be3e79287200137fa7ce0cfc035a5e637a0683eda740e67793Stake99059812022-05-20 8:35:30257 days 7 hrs ago0xdf0566896df00bfbd0bf86012251ff7b22f6a018OUT0xc63b35478c63a8d4598d72565fa80f62c6f518230 AVAX0.00348208227
0x771091a1a7760a9d8d4af1cdaa6e610145f55d73d0507fdce5d87a0168455af6Withdraw99055752022-05-20 8:21:58257 days 7 hrs ago0xdf0566896df00bfbd0bf86012251ff7b22f6a018OUT0xc63b35478c63a8d4598d72565fa80f62c6f518230 AVAX0.00110851227
0x48f483d6d11a186a0900c2a661926809e8852e42afc5900f0216e4b3c433137dStake99055222022-05-20 8:20:12257 days 7 hrs ago0xdf0566896df00bfbd0bf86012251ff7b22f6a018OUT0xc63b35478c63a8d4598d72565fa80f62c6f518230 AVAX0.00335311626
0x281fd2fa124d90ba392444b44a2ebc44bb371fa70cc5900a2c5fb82c11dfe8a1Redeem99047322022-05-20 7:53:52257 days 8 hrs ago0xdf0566896df00bfbd0bf86012251ff7b22f6a018OUT0x83159f801ff2352db088ed2792c91ae5170195f80 AVAX0.00261929727
0xbe2f01832acb068793551968d31697f5d9402dbbb57f91c4d3814c4a782745f0Approve99046152022-05-20 7:49:57257 days 8 hrs ago0xdf0566896df00bfbd0bf86012251ff7b22f6a018OUT 0xaef954281c4cd97a3c3b9c5f7817c5202f0af2440 AVAX0.00126924327
0x7429b284aee99c4beb0f98bcf987f92e0a87d478f3e57cda00d8398f3066e50eApprove99042922022-05-20 7:39:09257 days 8 hrs ago0xdf0566896df00bfbd0bf86012251ff7b22f6a018OUT 0x3a16bea96a801137643e107f260fd63c546198b40 AVAX0.00122223426
0xc148010013ce06ce8a4006014923de80909c0a9fcdab9447c3ecb7497528bed1Deposit99041112022-05-20 7:33:07257 days 8 hrs ago0xdf0566896df00bfbd0bf86012251ff7b22f6a018OUT0x83159f801ff2352db088ed2792c91ae5170195f80 AVAX0.00247749327
[ Download CSV Export 
Parent Txn Hash Block From To Value
Loading

Contract Name:
0

Compiler Version
0

Optimization Enabled:
0

Other Settings:
-NA-
Block Transaction Gas Used Reward
Age Block Fee Address BC Fee Address Voting Power Jailed Incoming
Block Uncle Number Difficulty Gas Used Reward
Loading